Ohio State University, OH

12:31 PM EDT on April 27, 2017 (GMT -0400)
Ohio State University

Weather History for KOSU - December, 2012

Change the Weather History Date:

Friday, December 21, 2012

  Actual Average Record
Temperature  
Mean Temperature 30 °F -  
Max Temperature 33 °F 34 °F 63 °F (2013)
Min Temperature 28 °F 21 °F 1 °F (2008)
Degree Days  
Heating Degree Days 34    
Moisture  
Dew Point 27 °F    
Average Humidity 86    
Maximum Humidity 100    
Minimum Humidity 75    
Precipitation  
Precipitation 0.00 in - - ()
Sea Level Pressure  
Sea Level Pressure 29.60 in    
Wind  
Wind Speed 23 mph (West)    
Max Wind Speed 30 mph    
Max Gust Speed 41 mph    
Visibility 4 miles    
Events Fog , Snow    
Averages and records for this station are not official NWS values.
T = Trace of Precipitation, MM = Missing Value Source: NWS Daily Summary

Daily Weather History Graph

Daily Weather History Graph

Search for Another Location

Airport or City:

Trip Planner

Search our weather history database for the weather conditions in past years. The results will help you decide how hot, cold, wet, or windy it might be!

Date:

Astronomy

Dec. 21, 2012 Rise Set
Actual Time 7:51 AM EST 5:10 PM EST
Civil Twilight 7:20 AM EST 5:40 PM EST
Nautical Twilight 6:46 AM EST 6:15 PM EST
Astronomical Twilight 6:13 AM EST 6:48 PM EST
Moon 12:56 PM EST (12/21) 1:36 AM EST (12/21)
Length of Visible Light 10h 20m
Length of Day
9h 19m
Waxing Gibbous, 64% of the Moon is Illuminated
Dec 21
Waxing Gibbous
Dec 28
Full
Jan 4
Last Quarter
Jan 11
New
Jan 18
First Quarter

Hourly Weather History & Observations

Time (EST) Temp. Windchill Dew Point Humidity Pressure Visibility Wind Dir Wind Speed Gust Speed Precip Events Conditions
12:53 AM 33.1 °F 19.8 °F 26.1 °F 75% 29.42 in 9.0 mi SW 26.5 mph 36.8 mph 0.00 in Snow Light Snow
1:53 AM 32.0 °F 19.8 °F 25.0 °F 75% 29.42 in 9.0 mi SW 20.7 mph 41.4 mph 0.00 in Snow Light Snow
2:53 AM 32.0 °F 18.4 °F 26.1 °F 79% 29.44 in 6.0 mi SW 26.5 mph 39.1 mph 0.00 in Snow Light Snow
3:53 AM 32.0 °F 18.4 °F 25.0 °F 75% 29.44 in 9.0 mi WSW 26.5 mph 36.8 mph 0.00 in Snow Light Snow
4:53 AM 30.0 °F 16.0 °F 26.1 °F 85% 29.43 in 3.0 mi SW 25.3 mph 39.1 mph 0.00 in Snow Light Snow
5:53 AM 30.0 °F 16.6 °F 25.0 °F 82% 29.42 in 9.0 mi WSW 23.0 mph 39.1 mph 0.00 in Snow Light Snow
6:36 AM 28.4 °F 14.7 °F 26.6 °F 93% 29.41 in 2.0 mi WSW 21.9 mph 39.1 mph 0.00 in Snow Light Snow
6:53 AM 28.9 °F 14.5 °F 26.1 °F 89% 29.43 in 2.5 mi WSW 25.3 mph 34.5 mph 0.00 in Snow Light Snow
7:01 AM 28.4 °F 14.7 °F 26.6 °F 93% 29.42 in 4.0 mi WSW 21.9 mph 39.1 mph 0.00 in Snow Light Snow
7:53 AM 30.0 °F 16.6 °F 26.1 °F 85% 29.46 in 4.0 mi West 23.0 mph 35.7 mph 0.00 in Snow Light Snow
8:33 AM 30.2 °F 16.8 °F 26.6 °F 86% 29.45 in 1.8 mi West 23.0 mph 34.5 mph 0.00 in Snow Light Snow
8:53 AM 30.0 °F 16.9 °F 27.0 °F 88% 29.48 in 1.2 mi West 21.9 mph 38.0 mph 0.00 in Snow Light Snow
9:00 AM 30.2 °F 16.2 °F 26.6 °F 86% 29.46 in 2.0 mi West 25.3 mph 34.5 mph 0.00 in Snow Light Snow
9:12 AM 30.2 °F 17.4 °F 26.6 °F 86% 29.47 in 3.0 mi West 20.7 mph 34.5 mph 0.00 in Snow Light Snow
9:23 AM 30.2 °F 17.1 °F 26.6 °F 86% 29.47 in 2.5 mi West 21.9 mph 39.1 mph 0.00 in Snow Light Snow
9:53 AM 30.9 °F 18.1 °F 28.0 °F 89% 29.51 in 2.0 mi West 21.9 mph 34.5 mph 0.00 in Snow Light Snow
10:12 AM 32.0 °F 19.5 °F 28.4 °F 87% 29.50 in 1.5 mi West 21.9 mph 32.2 mph 0.00 in Snow Light Snow
10:27 AM 32.0 °F 19.5 °F 28.4 °F 87% 29.51 in 1.2 mi West 21.9 mph 34.5 mph 0.00 in Snow Light Snow
10:53 AM 32.0 °F 18.9 °F 28.9 °F 88% 29.54 in 1.5 mi West 24.2 mph 36.8 mph 0.00 in Snow Light Snow
11:06 AM 32.0 °F 18.4 °F 28.4 °F 87% 29.53 in 1.8 mi West 26.5 mph 34.5 mph 0.00 in Snow Light Snow
11:10 AM 32.0 °F 18.9 °F 28.4 °F 87% 29.52 in 2.0 mi West 24.2 mph 34.5 mph 0.00 in Snow Light Snow
11:33 AM 30.2 °F 15.2 °F 28.4 °F 93% 29.53 in 2.0 mi West 29.9 mph 36.8 mph 0.00 in Snow Light Snow
11:42 AM 30.2 °F 16.8 °F 28.4 °F 93% 29.53 in 1.0 mi West 23.0 mph 36.8 mph 0.00 in Snow Light Snow
11:53 AM 30.9 °F 19.4 °F 28.0 °F 89% 29.55 in 1.0 mi West 17.3 mph 29.9 mph 0.00 in Snow Light Snow
12:02 PM 30.2 °F 16.5 °F 28.4 °F 93% 29.53 in 1.0 mi West 24.2 mph 33.4 mph 0.00 in Snow Light Snow
12:53 PM 30.9 °F 18.4 °F 28.9 °F 92% 29.57 in 0.5 mi West 20.7 mph 33.4 mph 0.00 in Fog , Snow Snow
1:12 PM 32.0 °F 18.4 °F 28.4 °F 87% 29.55 in 1.5 mi West 26.5 mph 38.0 mph 0.00 in Snow Light Snow
1:53 PM 30.9 °F 17.5 °F 28.9 °F 92% 29.59 in 1.0 mi West 24.2 mph 38.0 mph 0.00 in Snow Light Snow
2:53 PM 30.9 °F 16.9 °F 28.9 °F 92% 29.62 in 1.2 mi West 26.5 mph 35.7 mph 0.00 in Snow Light Snow
3:53 PM 30.0 °F 16.0 °F 28.0 °F 92% 29.66 in 1.2 mi West 25.3 mph 35.7 mph 0.00 in Snow Light Snow
4:53 PM 30.0 °F 17.2 °F 28.0 °F 92% 29.71 in 0.8 mi West 20.7 mph 32.2 mph 0.00 in Snow Light Snow
4:57 PM 30.2 °F 16.2 °F 28.4 °F 93% 29.68 in 0.8 mi West 25.3 mph 33.4 mph 0.00 in Snow Light Snow
5:47 PM 30.2 °F 17.1 °F 28.4 °F 93% 29.72 in 2.0 mi West 21.9 mph 29.9 mph 0.00 in Snow Light Snow
5:48 PM 30.0 °F 17.2 °F 28.0 °F 92% 29.75 in 2.0 mi West 20.7 mph 29.9 mph 0.00 in Snow Light Snow
6:29 PM 30.2 °F 18.5 °F 28.4 °F 93% 29.74 in 1.8 mi West 17.3 mph 26.5 mph 0.00 in Snow Light Snow
6:40 PM 30.2 °F 18.5 °F 30.2 °F 100% 29.75 in 2.0 mi West 17.3 mph 26.5 mph 0.00 in Snow Light Snow
6:53 PM 32.0 °F 20.8 °F 30.0 °F 92% 29.78 in 2.0 mi West 17.3 mph 25.3 mph 0.00 in Snow Light Snow
7:13 PM 33.8 °F 21.6 °F 28.4 °F 81% 29.76 in 5.0 mi WNW 23.0 mph 31.1 mph 0.00 in Snow Light Snow
7:53 PM 33.1 °F 21.5 °F 28.9 °F 85% 29.81 in 9.0 mi WNW 19.6 mph 32.2 mph 0.00 in Snow Light Snow
8:53 PM 33.1 °F 20.6 °F 27.0 °F 78% 29.83 in 7.0 mi WNW 23.0 mph 35.7 mph 0.00 in Snow Light Snow
9:53 PM 33.1 °F 21.5 °F 27.0 °F 78% 29.86 in 10.0 mi WNW 19.6 mph 27.6 mph 0.00 in   Overcast
10:33 PM 33.8 °F 22.8 °F 26.6 °F 75% 29.85 in 9.0 mi WNW 18.4 mph 27.6 mph 0.00 in Snow Light Snow
10:53 PM 33.1 °F 20.1 °F 26.1 °F 75% 29.88 in 9.0 mi WNW 25.3 mph 36.8 mph 0.00 in Snow Light Snow
11:00 PM 33.8 °F 21.9 °F 26.6 °F 75% 29.87 in 9.0 mi WNW 21.9 mph 36.8 mph 0.00 in Snow Light Snow
11:18 PM 33.8 °F 22.2 °F 26.6 °F 75% 29.88 in 9.0 mi WNW 20.7 mph 33.4 mph 0.00 in Snow Light Snow
11:53 PM 32.0 °F 21.2 °F 26.1 °F 79% 29.93 in 10.0 mi West 16.1 mph 26.5 mph 0.00 in   Overcast